Regional Weather Roundup
Issued by NWS Sioux Falls, SD

Home | Current Version | Previous Version | Text Only | Print | Product List | Glossary Off
Versions: 1 2 3 4 5 6 7 8 9 10 11 12 13 14 15 16 17 18 19 20 21 22 23 24 25 26 27 28 29 30 31 32 33 34 35 36 37 38 39 40 41 42 43 44 45 46 47 48 49 50

000
ASUS43 KFSD 260302
RWRFSD

WEATHER ROUNDUP FOR SE SOUTH DAKOTA/SW MINNESOTA/NW IOWA
NATIONAL WEATHER SERVICE SIOUX FALLS SD
1000 PM CDT THU AUG 25 2016

NOTE: "FAIR" INDICATES FEW OR NO CLOUDS BELOW 12,000 FEET WITH NO
SIGNIFICANT WEATHER AND OR OBSTRUCTIONS TO VISIBILITY.


SDZ038>040-050-052>070-260400-
SOUTHEAST SOUTH DAKOTA

CITY           SKY/WX    TMP DP  RH WIND       PRES   REMARKS
BROOKINGS      CLEAR     59  52  77 CALM      30.16R
CHAMBERLAIN    CLEAR     64  49  58 N8        30.19R
HURON          CLEAR     56  50  80 CALM      30.16R
MADISON        FAIR      54  54 100 N5        30.17R
MITCHELL       CLEAR     58  52  80 N6        30.17R
SIOUX FALLS    CLEAR     61  55  81 CALM      30.16R
WINNER         FAIR      62  47  57 CALM      30.20R
YANKTON        CLEAR     61  52  72 NW6       30.15R
$$

MNZ071-072-080-081-089-090-097-098-260400-
SOUTHWEST MINNESOTA

CITY           SKY/WX    TMP DP  RH WIND       PRES   REMARKS
FAIRMONT       CLEAR     61  58  90 NW3       30.15R
JACKSON        CLEAR     57  54  88 CALM      30.16R
LUVERNE        CLEAR     55  52  88 CALM      30.16R
MARSHALL       CLEAR     57  54  89 W3        30.15R
MONTEVIDEO     CLEAR     57  50  77 W3        30.14S
REDWOOD FALLS  CLEAR     62  53  72 CALM      30.13R
TRACY          PTCLDY    59  57  92 CALM      30.16R
WINDOM         CLEAR     57  55  94 CALM      30.15R
WORTHINGTON    CLEAR     60  56  86 CALM      30.16R
$$

IAZ001>003-012>014-020>022-031-032-NEZ013-014-SDZ071-260400-
NORTHWEST IOWA

CITY           SKY/WX    TMP DP  RH WIND       PRES   REMARKS
CHEROKEE       CLEAR     61  60  96 CALM      30.16R
DENISON        CLEAR     61  59  94 CALM      30.15R
ESTHERVILLE    CLEAR     57  57 100 NW6       30.15R
LE MARS        CLEAR     61  59  94 CALM      30.17R
ORANGE CITY    CLEAR     63  57  82 CALM      30.17R
SHELDON        CLEAR     57  57 100 CALM      30.15R
SIOUX CITY     CLEAR     61  58  90 SW3       30.16R
SPENCER        CLEAR     58  56  93 CALM      30.16R
STORM LAKE     CLEAR     63  59  88 W6        30.17R
$$

ABBREVIATIONS USED IN REMARKS
   TC - TEMPERATURE IN CELSIUS
  WCI - WIND CHILL INDEX
   HX - HEAT INDEX
  VSB - VISIBILITY





USA.gov is the U.S. government's official web portal to all federal, state and local government web resources and services.